Precipitable_Water
0.45 0.44 0.44 0.43 0.42 0.42 0.42 0.41 0.41 0.39 0.38 0.37 0.35 0.35 0.34 0.34 0.33 0.32 0.35 0.37 0.39 0.41 0.44 0.46 0.53 0.62 0.52 0.34 0.35 0.58 0.62 0.57 0.46 0.37 0.27 0.24 0.38 0.54 0.56 0.73 1.03 1.09 1.10 1.22 1.31 1.26 1.19
0.45 0.45 0.45 0.45 0.43 0.43 0.42 0.42 0.40 0.39 0.38 0.37 0.36 0.35 0.33 0.32 0.32 0.32 0.35 0.39 0.41 0.44 0.47 0.50 0.56 0.60 0.42 0.24 0.44 0.59 0.64 0.61 0.42 0.34 0.28 0.25 0.25 0.57 0.60 0.69 0.90 1.01 1.05 1.11 1.21 1.17 1.15
0.45 0.45 0.45 0.45 0.43 0.42 0.42 0.41 0.40 0.40 0.39 0.38 0.37 0.36 0.34 0.32 0.30 0.32 0.36 0.39 0.40 0.39 0.45 0.49 0.61 0.58 0.36 0.21 0.36 0.59 0.73 0.62 0.48 0.34 0.25 0.27 0.25 0.47 0.66 0.64 0.93 0.97 0.92 0.99 1.04 1.12 1.10
0.45 0.45 0.46 0.45 0.44 0.43 0.43 0.44 0.43 0.42 0.42 0.41 0.40 0.38 0.35 0.32 0.29 0.32 0.36 0.36 0.36 0.42 0.53 0.55 0.70 0.57 0.23 0.31 0.45 0.45 0.61 0.64 0.66 0.47 0.30 0.31 0.25 0.39 0.57 0.71 0.77 0.83 0.86 0.73 0.93 1.10 1.15
0.46 0.47 0.47 0.46 0.46 0.46 0.47 0.47 0.46 0.45 0.44 0.43 0.42 0.41 0.38 0.33 0.30 0.33 0.37 0.37 0.33 0.45 0.58 0.54 0.56 0.49 0.18 0.44 0.36 0.51 0.54 0.56 0.63 0.54 0.38 0.33 0.29 0.26 0.49 0.53 0.57 0.70 0.57 0.63 0.74 1.02 1.05
0.48 0.49 0.49 0.48 0.47 0.46 0.46 0.45 0.44 0.44 0.43 0.42 0.40 0.40 0.39 0.35 0.30 0.34 0.40 0.32 0.27 0.46 0.56 0.53 0.58 0.32 0.30 0.21 0.40 0.45 0.57 0.61 0.60 0.50 0.39 0.32 0.27 0.20 0.31 0.42 0.35 0.49 0.54 0.61 0.63 0.76 0.86
0.48 0.48 0.48 0.48 0.46 0.45 0.44 0.43 0.44 0.44 0.44 0.43 0.42 0.43 0.40 0.36 0.31 0.39 0.39 0.23 0.15 0.15 0.15 0.16 0.18 0.20 0.16 0.30 0.33 0.42 0.52 0.53 0.63 0.49 0.33 0.34 0.22 0.14 0.17 0.33 0.45 0.55 0.58 0.56 0.63 0.74 0.69
0.49 0.48 0.48 0.48 0.46 0.46 0.45 0.45 0.45 0.45 0.45 0.44 0.44 0.44 0.41 0.36 0.31 0.39 0.39 0.20 0.19 0.20 0.12 0.23 0.23 0.23 0.23 0.28 0.23 0.37 0.50 0.39 0.42 0.40 0.42 0.36 0.22 0.20 0.26 0.32 0.36 0.46 0.51 0.52 0.65 0.71 0.64
0.49 0.49 0.49 0.48 0.48 0.48 0.49 0.48 0.46 0.43 0.43 0.43 0.43 0.42 0.43 0.38 0.34 0.33 0.28 0.22 0.26 0.24 0.14 0.19 0.26 0.26 0.24 0.26 0.20 0.31 0.44 0.44 0.30 0.33 0.39 0.35 0.32 0.33 0.29 0.27 0.29 0.36 0.41 0.46 0.49 0.61 0.65
0.49 0.50 0.50 0.50 0.50 0.51 0.48 0.46 0.44 0.41 0.40 0.41 0.40 0.40 0.43 0.41 0.28 0.32 0.23 0.27 0.31 0.28 0.12 0.14 0.20 0.26 0.29 0.27 0.19 0.31 0.39 0.46 0.42 0.29 0.36 0.41 0.45 0.39 0.32 0.26 0.27 0.24 0.38 0.46 0.48 0.49 0.42
0.52 0.53 0.53 0.52 0.54 0.49 0.46 0.44 0.42 0.40 0.39 0.38 0.38 0.39 0.43 0.46 0.32 0.26 0.27 0.36 0.35 0.26 0.06 0.17 0.19 0.29 0.28 0.28 0.28 0.25 0.46 0.39 0.38 0.37 0.31 0.32 0.41 0.45 0.33 0.27 0.36 0.23 0.35 0.43 0.48 0.48 0.48
0.57 0.56 0.56 0.55 0.53 0.49 0.46 0.43 0.41 0.40 0.37 0.35 0.37 0.40 0.52 0.42 0.40 0.33 0.39 0.39 0.30 0.15 0.08 0.16 0.21 0.17 0.14 0.26 0.29 0.32 0.35 0.43 0.41 0.41 0.36 0.32 0.52 0.51 0.47 0.47 0.45 0.44 0.35 0.40 0.46 0.46 0.39
0.59 0.58 0.57 0.56 0.56 0.52 0.50 0.46 0.43 0.41 0.38 0.36 0.39 0.48 0.53 0.48 0.34 0.40 0.46 0.33 0.16 0.12 0.21 0.17 0.15 0.17 0.15 0.16 0.27 0.30 0.32 0.33 0.34 0.30 0.28 0.34 0.35 0.54 0.64 0.52 0.56 0.51 0.41 0.27 0.30 0.33 0.31
0.61 0.60 0.59 0.59 0.58 0.56 0.53 0.51 0.47 0.43 0.38 0.36 0.42 0.56 0.56 0.52 0.52 0.49 0.44 0.26 0.15 0.19 0.18 0.21 0.19 0.18 0.16 0.17 0.19 0.33 0.33 0.32 0.45 0.42 0.32 0.26 0.26 0.39 0.58 0.59 0.49 0.46 0.43 0.30 0.22 0.23 0.27
0.62 0.61 0.61 0.60 0.59 0.57 0.53 0.54 0.51 0.43 0.38 0.37 0.40 0.53 0.50 0.50 0.54 0.53 0.35 0.21 0.20 0.20 0.21 0.20 0.20 0.18 0.17 0.22 0.20 0.34 0.36 0.38 0.47 0.53 0.39 0.29 0.23 0.43 0.52 0.62 0.61 0.44 0.37 0.43 0.31 0.26 0.21
0.63 0.62 0.60 0.59 0.59 0.57 0.53 0.55 0.53 0.44 0.39 0.37 0.33 0.47 0.47 0.57 0.57 0.45 0.29 0.24 0.25 0.24 0.25 0.24 0.19 0.23 0.19 0.23 0.20 0.33 0.37 0.45 0.50 0.59 0.58 0.43 0.28 0.37 0.46 0.63 0.61 0.47 0.43 0.32 0.32 0.18 0.14
0.63 0.62 0.60 0.58 0.58 0.56 0.53 0.55 0.52 0.48 0.40 0.38 0.32 0.33 0.52 0.61 0.54 0.38 0.27 0.27 0.26 0.31 0.29 0.24 0.21 0.23 0.22 0.22 0.25 0.34 0.39 0.46 0.59 0.58 0.59 0.51 0.40 0.30 0.46 0.49 0.45 0.43 0.38 0.34 0.33 0.26 0.16
0.64 0.62 0.59 0.59 0.60 0.57 0.54 0.55 0.53 0.49 0.46 0.36 0.31 0.20 0.53 0.60 0.44 0.40 0.32 0.33 0.34 0.32 0.33 0.29 0.28 0.28 0.26 0.28 0.26 0.31 0.36 0.45 0.55 0.59 0.51 0.57 0.47 0.33 0.36 0.43 0.55 0.54 0.41 0.34 0.23 0.17 0.19
0.68 0.63 0.62 0.62 0.59 0.58 0.56 0.54 0.53 0.49 0.51 0.42 0.28 0.28 0.49 0.57 0.38 0.39 0.42 0.37 0.35 0.31 0.31 0.30 0.27 0.26 0.27 0.28 0.25 0.33 0.41 0.51 0.57 0.56 0.54 0.59 0.47 0.29 0.30 0.41 0.47 0.47 0.47 0.34 0.29 0.26 0.17
0.69 0.66 0.65 0.61 0.58 0.57 0.56 0.55 0.54 0.53 0.53 0.44 0.34 0.24 0.44 0.58 0.57 0.45 0.41 0.36 0.34 0.40 0.37 0.35 0.31 0.30 0.27 0.22 0.30 0.30 0.38 0.47 0.53 0.53 0.62 0.62 0.45 0.36 0.30 0.35 0.43 0.38 0.40 0.43 0.30 0.24 0.21
0.71 0.61 0.57 0.57 0.62 0.69 0.69 0.69 0.69 0.65 0.59 0.48 0.38 0.36 0.51 0.44 0.49 0.47 0.46 0.41 0.38 0.37 0.42 0.37 0.30 0.28 0.26 0.21 0.24 0.27 0.35 0.41 0.48 0.58 0.60 0.55 0.40 0.40 0.40 0.42 0.45 0.42 0.40 0.40 0.32 0.27 0.23
0.61 0.56 0.63 0.73 0.73 0.72 0.72 0.73 0.74 0.73 0.68 0.47 0.40 0.48 0.58 0.55 0.56 0.49 0.44 0.40 0.42 0.43 0.44 0.36 0.35 0.31 0.27 0.23 0.28 0.27 0.36 0.38 0.39 0.50 0.52 0.57 0.43 0.39 0.34 0.44 0.46 0.41 0.40 0.40 0.36 0.30 0.28
0.58 0.67 0.70 0.70 0.70 0.69 0.70 0.71 0.74 0.73 0.70 0.59 0.68 0.73 0.64 0.56 0.53 0.49 0.46 0.45 0.44 0.47 0.49 0.46 0.41 0.34 0.28 0.30 0.35 0.38 0.41 0.41 0.43 0.42 0.47 0.50 0.46 0.37 0.35 0.47 0.45 0.38 0.44 0.44 0.37 0.36 0.32
0.68 0.69 0.71 0.69 0.68 0.68 0.70 0.73 0.73 0.75 0.85 0.82 0.78 0.75 0.59 0.49 0.53 0.50 0.51 0.52 0.48 0.48 0.44 0.46 0.45 0.38 0.42 0.45 0.40 0.36 0.35 0.36 0.38 0.42 0.47 0.49 0.45 0.41 0.41 0.46 0.33 0.49 0.62 0.59 0.51 0.53 0.52
0.72 0.71 0.68 0.66 0.66 0.70 0.73 0.76 0.82 0.89 0.95 0.89 0.90 0.78 0.64 0.51 0.55 0.54 0.53 0.52 0.53 0.52 0.47 0.47 0.44 0.47 0.49 0.38 0.27 0.26 0.34 0.37 0.39 0.46 0.47 0.54 0.48 0.41 0.42 0.44 0.46 0.53 0.60 0.58 0.56 0.57 0.63
0.69 0.68 0.67 0.67 0.69 0.74 0.78 0.83 0.90 0.95 0.97 0.95 0.94 0.95 0.76 0.57 0.53 0.60 0.53 0.55 0.48 0.48 0.47 0.44 0.49 0.49 0.51 0.38 0.28 0.28 0.31 0.40 0.40 0.43 0.49 0.58 0.52 0.44 0.44 0.45 0.38 0.57 0.69 0.77 0.74 0.53 0.78
0.67 0.66 0.68 0.70 0.70 0.73 0.80 0.86 0.94 0.97 1.00 0.98 0.96 1.00 0.79 0.61 0.66 0.65 0.54 0.51 0.58 0.52 0.46 0.48 0.44 0.41 0.50 0.41 0.35 0.34 0.35 0.48 0.38 0.40 0.41 0.46 0.44 0.42 0.44 0.52 0.57 0.73 0.78 0.81 0.58 0.63 0.83
0.65 0.65 0.65 0.65 0.70 0.79 0.86 0.94 0.98 1.00 1.01 1.00 0.95 1.01 0.82 0.66 0.68 0.72 0.70 0.60 0.59 0.57 0.45 0.49 0.41 0.38 0.39 0.33 0.35 0.37 0.38 0.43 0.43 0.48 0.47 0.46 0.47 0.46 0.50 0.52 0.48 0.85 0.83 0.63 0.70 0.81 0.83
0.62 0.62 0.65 0.76 0.86 0.92 0.94 0.98 1.00 0.99 1.01 1.03 0.86 0.98 0.97 0.73 0.70 0.82 0.81 0.83 0.78 0.71 0.59 0.56 0.46 0.42 0.44 0.36 0.39 0.43 0.40 0.45 0.44 0.38 0.54 0.43 0.52 0.50 0.55 0.56 0.78 0.86 0.89 0.84 0.85 0.79 0.83
Wind_Speed
14 14 15 15 16 17 18 19 20 20 21 22 23 24 24 25 25 25 24 24 24 24 23 21 19 16 14 13 16 13 11 11 17 20 22 22 22 21 19 19 17 18 18 15 13 12 9
14 15 16 16 17 18 19 20 21 21 22 24 25 25 26 26 27 26 26 26 26 26 24 23 20 18 16 16 14 16 16 13 17 20 21 22 22 24 20 19 21 16 20 16 12 11 7
15 16 17 17 18 19 20 21 22 23 24 25 26 27 27 28 28 27 27 27 26 28 26 23 22 20 19 22 16 12 17 18 18 21 20 23 23 26 21 21 25 22 20 17 17 16 12
16 16 17 18 19 20 21 23 24 25 26 27 28 29 29 29 29 28 27 27 26 25 20 20 21 22 21 21 21 21 21 20 21 23 21 24 25 24 23 20 18 21 23 21 17 16 15
16 17 18 19 20 22 23 24 25 27 28 29 30 31 31 31 30 29 28 28 27 22 19 20 19 21 23 22 21 21 24 22 21 22 24 23 24 25 25 23 21 21 19 17 19 22 17
17 18 19 21 22 23 24 26 27 29 30 31 32 33 32 32 32 30 28 27 26 20 21 22 20 21 20 18 18 22 24 25 23 22 23 25 25 24 29 25 26 21 19 18 20 19 23
18 19 21 22 23 25 26 28 30 31 32 34 34 34 34 35 33 30 27 25 25 22 24 24 27 28 30 27 28 24 21 28 28 25 25 26 28 30 32 30 25 23 23 20 19 20 17
19 21 22 23 25 27 29 31 32 33 34 36 36 36 36 36 34 29 26 24 26 28 26 22 23 22 25 27 26 28 24 30 30 32 27 25 33 30 26 29 29 29 25 24 23 21 15
21 22 24 25 28 29 31 33 34 35 36 37 37 38 37 37 33 27 28 27 28 28 23 22 18 17 18 22 25 27 26 29 31 31 33 33 21 30 30 30 31 31 30 26 22 20 16
23 24 26 28 29 31 33 34 35 37 38 39 39 38 39 36 26 28 26 27 28 27 21 22 19 18 21 22 23 28 28 31 33 37 35 35 36 30 33 33 31 31 31 29 25 22 22
24 26 27 28 30 32 34 35 37 38 39 41 41 40 39 33 28 25 25 27 28 19 19 18 19 21 22 16 23 23 23 33 39 35 34 40 36 36 35 35 32 29 29 31 28 24 20
26 27 28 29 31 33 35 37 38 40 41 42 42 41 36 26 24 22 25 27 18 14 16 18 18 24 25 21 22 24 22 26 37 41 39 40 31 37 38 32 33 26 27 28 28 25 26
28 28 29 31 32 34 36 38 40 41 42 42 42 39 29 22 19 21 24 21 14 12 18 18 23 26 22 23 23 20 20 22 26 33 42 40 42 38 30 35 31 31 24 25 25 28 28
29 30 31 33 33 35 37 39 41 41 42 42 42 33 23 17 21 21 21 17 12 17 17 22 25 25 22 24 22 22 20 20 20 23 28 37 40 43 37 31 34 33 31 25 28 24 26
31 32 33 34 34 36 38 39 41 41 41 41 38 25 17 19 20 19 17 14 14 18 21 23 26 24 26 21 21 22 22 24 18 16 23 29 41 30 44 36 35 29 36 29 20 20 21
32 33 34 35 35 37 38 39 41 40 40 39 31 19 18 23 21 19 16 15 17 19 20 22 24 21 21 18 19 20 22 25 19 16 20 29 26 45 36 38 36 38 26 30 27 22 19
33 35 35 35 36 37 38 39 39 39 37 35 25 19 19 26 21 17 13 14 15 19 20 21 21 16 15 16 14 18 23 24 22 20 20 25 29 31 29 39 44 32 35 29 26 24 21
34 36 36 36 36 36 37 37 37 37 34 30 23 20 23 30 19 15 15 16 18 19 21 19 16 13 13 11 16 18 22 25 23 20 22 24 29 30 37 33 30 38 31 31 27 28 23
36 36 36 35 35 36 36 36 36 34 31 28 23 20 24 22 16 17 17 16 16 17 19 16 14 12 14 13 14 14 19 21 20 20 22 21 25 27 30 27 29 30 37 33 28 23 27
35 36 34 35 35 35 35 35 33 31 29 25 22 22 23 19 21 16 17 15 18 17 17 16 15 15 15 15 16 16 18 18 18 21 24 24 30 33 30 29 24 29 33 36 35 29 25
35 34 34 34 34 34 34 33 30 29 27 23 21 21 22 22 19 20 16 15 18 17 17 17 16 14 15 14 14 17 18 16 14 17 20 24 29 30 34 35 33 33 28 38 35 33 30
33 33 34 33 34 33 33 31 29 27 25 21 21 22 20 22 21 18 16 15 17 20 19 16 18 19 15 13 14 18 18 14 17 19 20 24 26 25 28 32 34 30 28 27 36 34 27
32 32 33 33 34 33 32 29 26 24 23 22 22 20 19 19 19 18 15 18 21 21 16 20 20 16 14 15 15 20 21 20 18 19 22 24 23 23 26 24 28 23 17 22 33 26 30
31 32 33 33 33 32 28 25 23 23 23 22 21 19 18 20 19 19 20 21 19 19 18 19 17 13 14 15 15 17 20 21 19 19 24 24 24 26 24 23 27 24 11 13 18 15 12
30 32 33 32 29 26 23 22 23 23 22 21 20 19 18 19 20 20 19 17 20 18 15 16 14 12 15 13 10 11 11 15 17 18 23 27 24 24 22 23 26 17 12 13 20 14 11
31 31 29 27 24 23 24 24 24 22 21 20 20 18 17 18 16 18 18 18 15 14 13 12 11 13 15 4 7 12 10 11 12 10 21 23 26 26 22 21 22 18 12 13 27 14 8
30 28 26 25 24 24 24 24 23 21 20 18 18 16 16 16 16 16 16 16 14 13 12 12 13 10 9 9 6 9 11 9 7 12 16 19 20 23 25 22 20 11 9 16 19 19 14
26 26 25 24 24 24 23 22 22 20 19 16 16 15 14 16 17 16 15 15 15 12 11 12 8 9 5 9 6 8 9 10 7 10 15 17 18 19 22 23 19 13 14 19 16 18 16
24 24 23 24 25 23 21 21 20 17 17 14 15 16 15 15 17 17 16 19 13 11 12 12 8 7 5 7 5 7 9 9 5 10 10 13 16 19 20 24 20 21 20 16 17 16 18
Wind_Direction
4 0 357 354 351 348 346 343 341 339 337 335 332 329 327 324 321 317 314 311 307 302 295 290 285 280 271 266 261 247 252 231 205 204 207 208 206 205 205 208 212 213 220 216 223 229 238
1 359 357 354 352 350 347 344 342 340 337 334 332 330 327 324 321 317 314 311 307 303 295 285 277 272 265 262 262 246 242 220 211 208 211 210 211 208 215 216 208 210 224 225 218 224 247
2 0 358 355 353 350 348 347 344 341 338 336 333 331 328 325 322 318 314 311 308 304 293 282 272 267 261 256 253 249 235 227 221 214 214 214 213 207 213 216 222 223 234 238 233 227 233
0 358 357 355 354 352 349 347 345 343 340 337 334 331 329 326 323 320 316 313 310 307 295 285 273 264 261 258 256 249 241 232 226 221 220 214 213 215 217 223 225 221 228 237 229 224 187
3 0 358 356 354 351 349 346 345 343 340 337 335 332 328 325 322 320 316 313 310 304 297 293 276 267 263 259 250 251 233 229 222 221 220 214 215 218 219 219 225 221 226 225 228 212 220
2 360 356 353 350 347 345 343 341 339 338 336 334 332 328 325 321 316 314 312 311 302 300 292 276 274 256 250 253 259 231 226 221 217 218 218 219 218 219 215 219 219 219 220 224 223 222
357 354 352 350 348 345 343 340 338 336 335 333 331 330 328 325 320 314 313 311 313 299 305 286 277 268 265 261 259 243 236 220 219 220 218 218 219 220 220 219 223 223 222 227 225 223 220
352 350 348 347 345 342 340 338 336 334 332 331 329 328 326 323 318 312 309 310 307 298 294 294 283 271 258 262 250 243 238 222 220 224 218 221 225 222 219 219 221 223 225 226 230 229 219
347 345 344 343 341 340 339 338 336 335 333 331 329 327 325 324 318 311 307 305 306 304 288 285 278 278 275 263 244 240 236 232 225 223 220 223 230 219 219 221 220 222 223 224 220 225 229
344 342 341 340 340 340 339 338 337 336 334 332 329 326 324 323 316 315 308 307 306 302 289 276 283 272 290 274 240 252 236 229 228 227 224 228 225 218 219 221 219 223 220 223 223 224 226
340 339 338 338 339 339 338 338 337 335 333 332 329 327 324 319 313 313 311 312 308 296 288 286 283 273 282 265 264 237 253 230 227 228 219 223 217 219 218 220 218 224 218 221 223 224 226
338 337 336 336 336 337 336 336 335 334 333 331 329 327 324 317 316 313 317 317 310 303 289 291 294 296 292 271 263 251 245 244 227 226 231 226 223 220 224 222 220 216 216 220 223 221 229
335 334 334 333 333 333 334 334 334 334 333 331 329 326 323 317 318 320 321 323 314 303 307 303 304 306 289 280 264 248 252 243 232 220 225 224 221 222 217 217 214 212 205 213 219 219 226
333 332 331 331 330 331 332 333 334 333 332 332 330 326 323 315 319 321 323 323 317 312 304 304 307 302 288 286 258 250 247 243 233 233 227 220 223 216 215 213 212 212 209 209 215 217 225
329 330 330 329 328 329 330 331 333 333 333 333 332 329 328 326 323 321 326 319 308 311 309 309 309 294 286 276 263 244 235 223 227 225 226 222 221 216 215 213 206 208 214 208 209 224 221
327 328 327 327 327 328 329 330 332 333 333 334 333 328 331 328 318 316 318 302 308 315 313 314 311 299 287 269 262 240 225 221 235 230 239 220 223 214 214 210 215 212 206 206 212 216 224
326 326 326 326 326 326 328 329 331 333 334 335 334 327 321 331 323 320 309 303 314 321 323 318 311 297 287 271 249 236 223 237 221 243 232 229 217 211 206 207 208 207 208 212 212 214 221
325 325 325 325 325 326 327 330 331 333 334 337 334 330 326 329 320 312 309 310 313 318 323 317 309 294 285 279 256 235 228 224 236 234 230 223 217 211 208 205 209 213 210 208 210 213 217
325 325 325 325 325 326 328 330 331 333 335 333 331 329 331 337 330 318 310 308 314 318 319 317 304 293 288 270 254 238 226 227 233 223 216 219 211 208 208 206 212 208 209 209 210 211 215
324 325 326 326 325 326 329 330 331 332 334 333 331 331 334 336 331 322 320 305 315 318 318 315 306 298 290 275 243 236 219 221 232 225 221 221 211 204 206 204 207 208 213 208 207 211 210
324 325 325 326 326 328 329 330 332 332 333 333 332 331 332 331 332 324 314 307 317 321 322 319 319 300 291 277 254 228 232 225 228 211 211 212 208 207 216 220 218 217 211 208 208 208 210
325 325 326 326 327 329 329 330 331 333 335 333 332 333 335 330 330 327 319 313 322 322 319 317 318 309 299 267 242 237 235 230 218 207 209 209 204 213 212 204 202 207 210 215 210 209 210
326 327 327 327 329 328 327 328 330 333 334 334 333 333 333 333 333 332 324 322 313 319 316 316 318 311 294 287 255 243 235 228 221 207 207 206 204 203 200 198 190 195 209 220 206 206 210
329 329 329 330 330 330 331 332 333 333 332 332 333 333 331 329 328 329 321 319 318 319 315 316 319 319 302 296 266 245 231 223 217 212 206 202 201 197 197 200 187 183 176 188 175 191 207
331 331 332 333 335 338 341 340 336 334 333 333 333 332 331 331 329 329 326 325 322 318 319 322 334 331 323 296 249 216 193 192 197 205 200 202 198 195 193 194 189 188 203 209 194 181 204
333 334 337 339 342 342 341 340 339 337 336 336 337 336 336 337 340 336 338 333 333 333 330 328 333 334 349 330 180 180 177 177 182 192 184 195 202 194 193 190 186 203 227 217 183 182 199
335 338 340 341 341 342 342 342 343 341 341 340 343 346 348 347 348 348 348 346 342 341 336 340 345 353 29 55 139 170 179 169 147 168 180 190 199 190 190 182 184 198 224 178 177 190 191
339 341 342 343 343 342 343 345 346 347 349 352 355 359 3 3 358 359 360 356 352 354 356 354 5 17 49 41 113 138 153 157 130 149 176 179 188 189 190 182 184 190 169 163 181 180 178
343 345 346 346 346 347 348 350 354 359 5 12 17 19 16 15 14 14 10 6 12 17 17 23 31 34 46 48 105 145 147 147 135 143 139 160 179 189 187 186 193 184 182 174 182 182 187